Grand Rapids, MI

1:55 AM EDT on September 25, 2016 (GMT -0400)
Gerald R. Ford International

Weather History for KGRR - January, 2014

Change the Weather History Date:

Saturday, January 4, 2014

  Actual Average Record
Temperature  
Mean Temperature 24 °F 25 °F  
Max Temperature 31 °F 31 °F 60 °F (1997)
Min Temperature 16 °F 19 °F -20 °F (1981)
Degree Days  
Heating Degree Days 41 40  
Month to date heating degree days 210 160  
Since 1 July heating degree days 2730 2609  
Cooling Degree Days 0 0  
Month to date cooling degree days 0 0  
Year to date cooling degree days 0 0  
Moisture  
Dew Point 19 °F    
Average Humidity 74    
Maximum Humidity 92    
Minimum Humidity 56    
Precipitation  
Precipitation 0.14 in 0.08 in 2.15 in (1993)
Month to date precipitation 0.21 0.31  
Year to date precipitation 0.21 0.31  
Snow  
Snow 1.70 in 0.70 in 6.30 in (1941)
Month to date snowfall 2.9 2.9  
Since 1 July snowfall 39.8 32.1  
Snow Depth 5.00 in    
Sea Level Pressure  
Sea Level Pressure 29.92 in    
Wind  
Wind Speed 14 mph (SSW)    
Max Wind Speed 23 mph    
Max Gust Speed 30 mph    
Visibility 5 miles    
Events Snow    
T = Trace of Precipitation, MM = Missing Value Source: NWS Daily Summary

Daily Weather History Graph

Daily Weather History Graph

Search for Another Location

Airport or City:

Trip Planner

Search our weather history database for the weather conditions in past years. The results will help you decide how hot, cold, wet, or windy it might be!

Date:

Astronomy

Jan. 04, 2014 Rise Set
Actual Time 8:13 AM EST 5:21 PM EST
Civil Twilight 7:41 AM EST 5:53 PM EST
Nautical Twilight 7:05 AM EST 6:28 PM EST
Astronomical Twilight 6:31 AM EST 7:03 PM EST
Moon 10:12 AM EST (1/4) 9:47 PM EST (1/4)
Length of Visible Light 10h 12m
Length of Day
9h 08m
Waxing Crescent, 15% of the Moon is Illuminated
Jan 4
Waxing Crescent
Jan 7
First Quarter
Jan 15
Full
Jan 24
Last Quarter
Jan 30
New

Hourly Weather History & Observations

Time (EST) Temp. Windchill Dew Point Humidity Pressure Visibility Wind Dir Wind Speed Gust Speed Precip Events Conditions
12:53 AM 16.0 °F 0.6 °F 5.0 °F 62% 30.01 in 10.0 mi South 16.1 mph 23.0 mph N/A   Clear
1:53 AM 16.0 °F 1.7 °F 5.0 °F 62% 29.98 in 10.0 mi South 13.8 mph - N/A   Clear
2:53 AM 17.1 °F 5.0 °F 5.0 °F 59% 29.96 in 10.0 mi South 10.4 mph - N/A   Clear
3:53 AM 19.0 °F 4.5 °F 6.1 °F 57% 29.94 in 10.0 mi SSW 16.1 mph 25.3 mph N/A   Clear
4:53 AM 19.0 °F 3.6 °F 7.0 °F 59% 29.91 in 10.0 mi SSW 18.4 mph 29.9 mph N/A   Clear
5:53 AM 19.9 °F 5.2 °F 8.1 °F 60% 29.88 in 10.0 mi SSW 17.3 mph 25.3 mph N/A   Clear
6:53 AM 21.0 °F 5.4 °F 9.0 °F 60% 29.86 in 10.0 mi SSW 20.7 mph 26.5 mph N/A   Clear
7:53 AM 21.9 °F 9.2 °F 9.0 °F 58% 29.86 in 10.0 mi SSW 13.8 mph - N/A   Scattered Clouds
8:53 AM 23.0 °F 9.6 °F 10.0 °F 58% 29.87 in 10.0 mi SSW 16.1 mph 23.0 mph N/A   Scattered Clouds
9:53 AM 25.0 °F 11.7 °F 12.0 °F 58% 29.88 in 10.0 mi SSW 17.3 mph 25.3 mph N/A   Mostly Cloudy
10:53 AM 27.0 °F 13.9 °F 14.0 °F 58% 29.89 in 10.0 mi SSW 18.4 mph 25.3 mph N/A   Mostly Cloudy
11:53 AM 28.9 °F 18.2 °F 16.0 °F 58% 29.86 in 10.0 mi SW 13.8 mph 21.9 mph N/A   Overcast
12:53 PM 30.0 °F 16.3 °F 21.0 °F 69% 29.86 in 5.0 mi SW 24.2 mph 27.6 mph 0.00 in Snow Light Snow
1:45 PM 30.2 °F 17.8 °F 23.0 °F 75% 29.83 in 1.2 mi SW 19.6 mph - 0.00 in Snow Light Snow
1:53 PM 30.0 °F 17.9 °F 23.0 °F 75% 29.87 in 1.8 mi SW 18.4 mph - 0.00 in Snow Light Snow
2:04 PM 30.2 °F 18.1 °F 23.0 °F 75% 29.84 in 2.5 mi WSW 18.4 mph - 0.00 in Snow Light Snow
2:31 PM 30.2 °F 19.3 °F 23.0 °F 75% 29.85 in 1.0 mi SW 15.0 mph - 0.00 in Snow Light Snow
2:53 PM 30.0 °F 18.7 °F 24.1 °F 79% 29.88 in 1.0 mi SW 16.1 mph - 0.00 in Snow Light Snow
3:06 PM 30.2 °F 19.3 °F 24.8 °F 80% 29.85 in 3.0 mi SW 15.0 mph - 0.00 in Snow Light Snow
3:20 PM 30.2 °F 20.2 °F 24.8 °F 80% 29.86 in 1.5 mi SW 12.7 mph - 0.00 in Snow Light Snow
3:53 PM 30.0 °F 19.1 °F 25.0 °F 82% 29.90 in 1.2 mi SSW 15.0 mph - 0.01 in Snow Light Snow
4:33 PM 28.4 °F 19.1 °F 24.8 °F 86% 29.88 in 3.0 mi SSW 10.4 mph - 0.00 in Snow Light Snow
4:46 PM 28.4 °F 19.1 °F 24.8 °F 86% 29.89 in 2.5 mi SSW 10.4 mph - 0.00 in Snow Light Snow
4:53 PM 28.9 °F 21.1 °F 25.0 °F 85% 29.94 in 2.5 mi SSW 8.1 mph - 0.00 in Snow Light Snow
5:00 PM 28.4 °F 19.7 °F 24.8 °F 86% 29.90 in 3.0 mi SSW 9.2 mph - 0.00 in Snow Light Snow
5:11 PM 28.4 °F 19.7 °F 24.8 °F 86% 29.91 in 1.8 mi SSW 9.2 mph - 0.01 in Snow Light Snow
5:43 PM 28.4 °F 19.1 °F 24.8 °F 86% 29.92 in 2.0 mi SSW 10.4 mph - 0.01 in Snow Light Snow
5:53 PM 28.9 °F 19.8 °F 25.0 °F 85% 29.95 in 2.5 mi SSW 10.4 mph - 0.01 in Snow Light Snow
6:29 PM 28.4 °F 19.1 °F 24.8 °F 86% 29.92 in 5.0 mi SSW 10.4 mph - 0.01 in Snow Light Snow
6:40 PM 28.4 °F 18.5 °F 24.8 °F 86% 29.93 in 2.5 mi SSW 11.5 mph - 0.01 in Snow Light Snow
6:48 PM 28.4 °F 18.5 °F 24.8 °F 86% 29.93 in 1.5 mi SSW 11.5 mph - 0.01 in Snow Light Snow
6:53 PM 28.9 °F 20.4 °F 25.0 °F 85% 29.97 in 1.5 mi SSW 9.2 mph - 0.01 in Snow Light Snow
7:19 PM 28.4 °F 18.5 °F 26.6 °F 93% 29.94 in 1.2 mi SSW 11.5 mph - 0.01 in Snow Light Snow
7:53 PM 28.9 °F 21.9 °F 26.1 °F 89% 29.99 in 1.8 mi SSW 6.9 mph - 0.02 in Snow Light Snow
8:53 PM 28.9 °F 21.9 °F 26.1 °F 89% 30.00 in 1.2 mi SSW 6.9 mph - 0.02 in Snow Light Snow
9:53 PM 28.9 °F 21.1 °F 26.1 °F 89% 29.99 in 1.2 mi South 8.1 mph - 0.03 in Snow Light Snow
10:53 PM 30.0 °F 22.4 °F 26.1 °F 85% 30.00 in 1.5 mi South 8.1 mph - 0.02 in Snow Light Snow
11:53 PM 30.0 °F 23.2 °F 27.0 °F 88% 30.01 in 1.8 mi SSW 6.9 mph - 0.02 in Snow Light Snow